CST,Max TemperatureF,Mean TemperatureF,Min TemperatureF,Max Dew PointF,MeanDew PointF,Min DewpointF,Max Humidity, Mean Humidity, Min Humidity, Max Sea Level PressureIn, Mean Sea Level PressureIn, Min Sea Level PressureIn, Max VisibilityMiles, Mean VisibilityMiles, Min VisibilityMiles, Max Wind SpeedMPH, Mean Wind SpeedMPH, Max Gust SpeedMPH,PrecipitationIn, CloudCover, Events, WindDirDegrees
2013-1-1,51,42,32,52,39,30,100,84,58,30.26,30.15,29.98,10,8,2,13,6,21,0.05,4,Rain,357
2013-1-2,42,36,30,30,28,27,93,79,53,30.32,30.27,30.23,10,10,10,10,5,,0.00,0,,346
2013-1-3,42,34,26,30,28,23,93,71,57,30.44,30.38,30.31,10,10,10,14,4,,0.00,5,,358
2013-1-4,41,37,33,37,34,28,100,86,61,30.50,30.42,30.36,10,9,2,9,3,,0.07,8,,86
2013-1-5,57,46,35,41,36,32,100,80,41,30.36,30.28,30.20,10,9,4,9,2,,0.01,4,,256
2013-1-6,57,45,33,36,29,25,100,58,29,30.40,30.32,30.28,10,10,7,12,5,16,0.00,0,,1
2013-1-7,53,40,28,36,31,25,87,67,47,30.31,30.20,30.06,10,10,10,12,2,,0.00,2,,104
2013-1-8,50,46,42,50,45,37,100,93,71,30.05,29.98,29.90,10,4,0,10,5,17,1.40,8,Fog-Rain-Thunderstorm,44
2013-1-9,123,48,-27,61,38,-27,100,96,86,30.03,29.97,29.84,10,7,0,17,8,26,1.29,8,Fog-Rain,355
2013-1-10,109,76,42,86,50,37,100,80,41,30.02,29.98,29.95,10,10,0,16,6,26,0.00,3,Fog,233
2013-1-11,95,68,42,64,50,41,94,73,24,29.97,29.88,29.78,10,10,10,16,6,25,0.00,1,,184
2013-1-12,86,86,50,73,56,39,66,66,66,29.95,29.79,29.67,10,6,0,16,5,24,0.08,7,Fog-Rain,18
2013-1-13,93,63,33,54,30,25,75,62,26,30.20,30.11,29.95,10,10,10,14,10,23,0.00,3,,348
2013-1-14,87,76,44,54,40,32,61,41,31,30.25,30.19,30.09,10,10,10,13,9,20,0.00,2,,22
2013-1-15,109,73,37,90,59,30,94,65,39,30.22,30.16,30.11,10,8,2,14,8,20,0.01,6,Thunderstorm,351
2013-1-16,71,42,12,55,23,3,81,51,27,30.31,30.24,30.17,10,10,10,13,5,20,0.00,0,,287
2013-1-17,64,50,35,37,32,25,87,55,30,30.49,30.38,30.27,10,10,10,12,6,16,0.00,0,,318
2013-1-18,69,50,32,34,32,30,100,61,26,30.49,30.40,30.28,10,10,10,12,3,17,0.00,0,,167
2013-1-19,69,52,35,46,41,32,100,65,38,30.28,30.20,30.13,10,10,10,14,5,22,0.00,0,,196
2013-1-20,75,55,35,45,38,32,93,61,23,30.23,30.15,30.07,10,10,10,9,2,17,0.00,0,,239
2013-1-21,62,50,39,45,40,34,100,71,45,30.26,30.19,30.12,10,10,7,15,3,18,0.00,0,,17
2013-1-22,69,52,35,52,42,32,93,68,49,30.30,30.23,30.18,10,10,10,10,2,16,0.00,1,,181
2013-1-23,75,58,42,59,51,41,100,77,47,30.31,30.23,30.18,10,9,0,12,4,18,0.00,0,Fog,195
2013-1-24,82,66,50,61,55,48,100,73,32,30.22,30.15,30.07,10,10,7,12,4,16,0.00,0,,213
2013-1-25,75,60,46,61,53,43,100,74,50,30.17,30.09,30.04,10,10,7,13,6,18,0.00,0,,274
2013-1-26,57,50,44,54,48,41,100,90,76,30.19,30.13,30.08,10,5,1,7,3,,0.00,8,,84
2013-1-27,75,64,53,66,59,54,100,79,57,30.08,30.01,29.94,10,9,2,17,8,29,0.00,6,,169
2013-1-28,77,70,64,66,64,63,94,80,61,30.01,29.94,29.86,10,10,10,20,10,28,0.00,7,,169
2013-1-29,78,66,53,66,53,19,88,64,26,29.87,29.70,29.52,10,10,10,23,13,34,0.05,5,Rain,208
2013-1-30,53,42,32,30,20,10,69,38,18,30.18,30.02,29.75,10,10,7,21,13,37,0.00,0,,295
2013-1-31,69,50,32,27,20,16,64,34,13,30.24,30.19,30.14,10,10,10,14,6,20,0.00,0,,240